Location: Newark
(36.0797°N, 3.9744°E)
Time: 05:53:57
(UTC+00:00)

Vanguard 2 Rocket - Pass Details

Date: 10 December 2019
Orbit: 554 x 3326 km, 32.9° (Epoch: 21 January)

Event Time Altitude Azimuth Distance (km) Brightness Sun altitude
Rises 17:56:47 0° 246° (WSW) 6,737 13.1 -17.1°
Reaches altitude 10° 18:01:53 10° 244° (WSW) 5,367 12.0 -18.1°
Maximum altitude 18:16:06 64° 168° (SSE) 1,880 8.4 -20.9°
Enters shadow 18:20:45 31° 99° (E) 2,251 8.3 -21.8°
Drops below altitude 10° 18:23:59 10° 89° (E) 3,113 - -22.4°
Sets 18:26:11 0° 86° (E) 3,818 - -22.8°
